Погода в Онежском

Россия / Республика Карелия     61°59′11″N   35°53′51″E
темп.,
°C
ветер,
м/с
пор.,
м/с
влажн.,
%
обл.,
%
осадки,
мм/ч
давл.,
гПа
погр.,
м
29 июля, чт
чт2900:00+16в1184100 0.8 100612
03:00+16ююв1289100 0.9 100532
06:00+17ююв1193100 0.3 100435
09:00+17зсз1396100 0.9 1003123
12:00+17в1293100 1.5 1002203
15:00+18в2390100 3.1 1000335
18:00+17ю1297100 1.3 999115
21:00+16зюз1195100 2.2 99813
30 июля, пт
пт3000:00+15ююз229554 0.0 99847
03:00+15юз249730 0.1 99899
06:00+16юз269550 0.1 998302
09:00+18юз46775 0.1 998503
12:00+22юз4856100 0.0 9981243
15:00+23зюз5846100 0.0 9981621
18:00+22зюз49453 0.0 9981846
21:00+17ююз276799 0.0 998156
31 июля, сб
сб3100:00+17юз277099 0.0 998183
03:00+13ююв1192100 1.2 99715
06:00+14юв2492100 0.1 996109
09:00+19ююз356730 0.3 995573
12:00+21юз33505 0.3 9951068
15:00+21юз345140 0.3 9961147
18:00+20ююз34535 0.0 997710
21:00+15ю22845 0.0 99814
1 августа, вс
вс100:00+14юз11935 0.0 99913
03:00+14зюз24960 0.0 100091
06:00+15ююз25894 0.0 1001221
09:00+19ююз35685 0.0 1001557
12:00+22ююз455197 0.0 10011086
15:00+24ю4643100 0.1 9991730
18:00+16ююв2697100 7.6 1000276
21:00+16ююз3109455 11.5 999378
2 августа, пн
пн200:00+15юз411944 2.5 999589
03:00+15юз4119649 2.5 1000658
06:00+15ююз4109515 0.1 1000620
09:00+17юз597823 0.3 1000887
12:00+19юз6106826 0.6 10001324
15:00+19юз611591 1.0 10011260
18:00+20юз595574 0.0 10011708
21:00+16зсз266797 0.1 1002256